カタログに戻る

FENGYUN 1C DEB

運用中PO
NORAD 30719·DEBRIS·🇨🇳 China

打ち上げ May 10, 1999 から Taiyuan Satellite Launch Center

Loading…

次のパス (今後24時間)

TLE

最新Source: Space-Track

元期: Sep 14, 2026, 22:07 UTC

1 30719U 99025ASD 26257.92185441  .00012460  00000-0  21909-2 0  9997
2 30719  98.8993  66.4897 0009618  64.8684 295.3515 14.67755511 14780

AllMySatでFENGYUN 1C DEBをリアルタイム追跡

Download on the App Store